Find Starlink 30603

NORAD ID: 58080 Int'l Des: 2023-160 Owner: SPXS Country: US Constellation: starlink operational
LEOCIRCULAR

現在のビュー

3D地球を読み込み中...

About Starlink 30603

Starlink 30603 (NORAD 58080) is a starlink constellation satellite (v2 mini) launched Oct 18, 2023 by SPXS of US. It operates in LEO, CIRCULAR orbit with a mass of 730.00 kg.

次回通過

Passes for default location (London). Set your location on the main map for personalized predictions.

高度履歴

Loading altitude history...

軌道要素

1 58080U 23160F 26237.30841521 .00000387 00000-0 23584-4 0 9991
2 58080 43.0022 205.6413 0001328 266.8253 93.2447 15.27574618158730
Epoch: Aug 25, 2026 • Age: 19 hours

現在のステータス

高度 486.3 km
遠地点 / 近地点 N/A
速度 7.62 km/s
衛星直下点 -17.58°S, 175.35°E
打ち上げ日 Oct 18, 2023
運用期間 2.8 years
タイプ internet

技術仕様

分類 Payload
質量 730.00 kg
乾燥質量 700.00 kg
総質量 730.00 kg
長さ 0.30 m
直径 4.10 m
スパン 29.00 m
形状 Box + pan
製造者 SPXS
バスタイプ Starlink V2M
フェーズステータス In Orbit
所有者/国 SPXS/US

Most Searched